Hourly Data Report for October 06, 2015

All times are specified in Local Standard Time (LST). Add 1 hour to adjust for Daylight Saving Time where and when it is observed.

HALL BEACH A
NUNAVUT

68°46'33.000" N
81°14'33.000" W
9.10 m
2402354
71293
YUX

Download Data

Hourly Data (October 2015)
Hourly Data Report for October 6, 2015
Temp Definition
°C
Dew Point Temp Definition
°C
Rel Hum Definition
%
Wind Dir Definition
10's deg

Wind Spd Definition
km/h
Visibility Definition
km
Stn Press Definition
kPa
Hmdx Definition


Wind Chill Definition


Weather Definition


TIME
00:00 Legend Double Dagger -2.5 -2.9 97 22 13 16.1 101.02   -7 LegendNANA
01:00 Legend Double Dagger -2.3 -2.9 96 23 11 16.1 100.98   -6 LegendNANA
02:00 Legend Double Dagger -1.0 -1.7 95 22 11 16.1 100.94   -5 LegendNANA
03:00 Legend Double Dagger -0.6 -1.5 94 20 11 16.1 100.91   -4 LegendNANA
04:00 Legend Double Dagger -0.4 -1.5 92 20 13 16.1 100.86   -5 LegendNANA
05:00 Legend Double Dagger -1.4 -2.1 95 21 11 16.1 100.84   -5 LegendNANA
06:00 Legend Double Dagger -1.3 -2.6 91 24 13 16.1 100.82   -6 LegendNANA
07:00 Legend Double Dagger -1.4 -2.5 92 24 18 16.1 100.79   -7 LegendNANA
08:00 Legend Double Dagger -2.7 -3.5 94 23 18 16.1 100.76   -8 LegendNANA
09:00 Legend Double Dagger -2.3 -3.4 92 21 17 16.1 100.73   -8 LegendNANA
10:00 Legend Double Dagger -1.9 -3.0 92 22 17 16.1 100.70   -7 LegendNANA
11:00 Legend Double Dagger -1.6 -3.3 88 21 18 16.1 100.67   -7 LegendNANA
12:00 Legend Double Dagger -0.8 -2.5 88 22 17 16.1 100.63   -6 LegendNANA
13:00 Legend Double Dagger -0.7 -2.4 88 22 17 16.1 100.62   -6 LegendNANA
14:00 Legend Double Dagger -0.5 -2.4 87 23 9 16.1 100.59   -4 LegendNANA
15:00 Legend Double Dagger -0.3 -2.5 85 21 11 16.1 100.56   -4 LegendNANA
16:00 Legend Double Dagger -0.6 -2.5 87 23 11 16.1 100.55   -4 LegendNANA
17:00 Legend Double Dagger -1.3 -2.7 90 20 15 16.1 100.50   -6 LegendNANA
18:00 Legend Double Dagger -0.7 -2.1 90 21 18 16.1 100.47   -6 LegendNANA
19:00 Legend Double Dagger -0.7 -1.8 92 21 11 16.1 100.42   -4 LegendNANA
20:00 Legend Double Dagger -0.7 -1.3 96 22 11 16.1 100.40   -4 Snow
21:00 Legend Double Dagger -0.2 -0.6 97 25 17 11.3 100.37   -5 Snow
22:00 Legend Double Dagger -0.3 -0.7 97 26 11 16.1 100.33   -4 Snow
23:00 Legend Double Dagger -0.8 -1.7 94 30 28 16.1 100.32   -7 LegendNANA

Notes on Data Quality.

Legend

  • E = Estimated
  • M = Missing
  • NA = Not Available
  • ‡ = Partner data that is not subject to review by the National Climate Archives
Date modified: